{"data":{"norad_id":66932,"intl_designator":"2025-286H","name":"STARLINK-36177","alt_names":[],"object_type":"PAYLOAD","status":"ACTIVE","operator":null,"country":"US","launch_date":"2025-12-07","launch_site_code":"AFWTR","launch_vehicle":null,"mission":null,"orbit_class":"UNKNOWN","rcs_meters":null,"size_class":null,"mass_kg":null,"dimensions":null,"purposes":["comms"],"wikipedia_slug":null,"has_3d_model":false,"image_url":null,"decayed_at":null,"tle_current":{"epoch":"2026-05-24T23:43:43.396608Z","epoch_age_seconds":76089,"freshness":"FRESH","line1":"1 66932U 25286H   26144.98869672  .00020892  00000+0  62761-3 0  9996","line2":"2 66932  53.1607   3.6883 0001211  71.0937 289.0197 15.34406453 27101","mean_motion":15.34406453,"eccentricity":0.0001211,"inclination_deg":53.1607,"raan_deg":3.6883,"arg_perigee_deg":71.0937,"mean_anomaly_deg":289.0197,"bstar":0.00062761,"rev_number":2710,"period_min":93.847363401306,"perigee_km":461.85563716798,"apogee_km":463.51248402885,"semimajor_km":6840.8210605984,"source":"CELESTRAK","updated_at":"2026-05-25T13:38:21.386170Z"}}}